Regional Weather Roundup
Issued by NWS

Home | Current Version | Previous Version | Graphics & Text | Print | Product List | Glossary On
Versions: 1 2 3 4 5 6 7 8 9 10 11 12 13 14 15 16 17 18 19 20 21 22 23 24 25 26 27 28 29 30 31 32 33 34 35 36 37 38 39 40 41 42 43 44 45 46 47 48 49 50
896
ASUS45 KBOI 180510
RWRID

IDAHO REGIONAL WEATHER ROUNDUP
NATIONAL WEATHER SERVICE BOISE ID
1100 PM MDT THU AUG 17 2017

NOTE: "FAIR" INDICATES FEW OR NO CLOUDS BELOW 12000 FEET
WITH NO SIGNIFICANT WEATHER AND/OR OBSTRUCTIONS TO VISIBILITY

IDZ012-014-180600-
SOUTHWEST IDAHO


CITY           SKY/WX    TMP DP  RH WIND       PRES   REMARKS
BOISE          CLEAR     73  37  27 CALM      30.04S
CALDWELL       CLEAR     69  46  43 CALM      30.02S
MOUNTAIN HOME  CLEAR     69  35  28 W9        30.04F
$$

IDZ016-017-180600-
SOUTHCENTRAL IDAHO


CITY           SKY/WX    TMP DP  RH WIND       PRES   REMARKS
BURLEY         CLEAR     62  44  51 SW8       30.11S
JEROME         CLEAR     69  36  29 SW7       30.11R
TWIN FALLS     CLEAR     65  38  36 SW12      30.13R
$$

IDZ019>023-180600-
SOUTHEAST IDAHO


CITY           SKY/WX    TMP DP  RH WIND       PRES   REMARKS
IDAHO FALLS    CLEAR     69  38  32 S10       30.14R
POCATELLO      CLEAR     69  35  28 S13       30.14S
REXBURG        CLEAR     69  35  28 S10       30.14S
$$

IDZ006-010-011-018-031-032-180600-
CENTRAL IDAHO MOUNTAINS


CITY           SKY/WX    TMP DP  RH WIND       PRES   REMARKS
MCCALL         CLEAR     62  38  40 NE3       30.18R
HAILEY         CLEAR     61  43  51 NW6       30.18R
STANLEY          N/A     58  36  43 CALM      30.28R
SALMON         CLEAR     65  40  39 CALM      30.11R
CHALLIS        PTCLDY    70  34  26 NW12      30.15R
$$

IDZ002-004-006-007-026-180600-
NORTHERN IDAHO


CITY           SKY/WX    TMP DP  RH WIND       PRES   REMARKS
LEWISTON       CLEAR     74  41  30 S6        30.01S
LOWELL           N/A     65  50  58 CALM      30.05R
COEUR D`ALENE  CLEAR     65  44  46 CALM      30.06R
MULLAN PASS    CLEAR     56  36  47 NW5       30.24S
$$




USA.gov is the U.S. government's official web portal to all federal, state and local government web resources and services.